Wind_Speed
20 13 14 15 15 18 19 20 19 18 16 15 15 14 16 13 11 16 12 14 18 16 15 17 16 19 19 11 13 18 22 22 14 18 12 13 14 16 15 14 19 22 19 19 19 17 16 16 18 18 16 15 17 17 17 18 18 17 16 16 16 16 17 16 15 15 14 14 14 14 15 14 13 12 12 12 11 9 8 8 6 5 5 4 4 3
19 14 16 19 18 19 20 19 20 21 18 14 13 13 15 12 10 16 12 12 15 13 13 17 16 18 20 13 13 17 18 17 14 17 14 9 14 15 12 14 18 21 19 18 19 18 17 16 16 15 14 15 16 17 18 19 19 19 19 17 15 16 16 14 14 14 13 14 13 12 11 11 10 10 11 11 10 10 9 8 6 6 5 4 5 4
15 14 19 21 19 18 19 19 20 22 19 12 11 11 12 11 11 15 14 12 13 10 10 18 16 15 19 16 14 17 16 17 18 14 18 18 16 13 12 14 16 18 18 18 19 19 17 16 16 14 14 14 15 17 18 18 20 21 20 18 16 14 14 14 14 13 12 12 11 8 7 8 9 10 10 10 9 9 7 6 6 5 5 4 5 4
13 14 20 20 18 19 19 20 20 19 15 11 10 10 11 13 13 12 13 13 12 10 11 16 14 12 15 17 15 17 19 18 13 13 21 20 16 19 20 20 19 18 17 17 18 18 18 18 16 15 15 15 15 16 17 18 19 19 18 17 14 13 14 14 13 12 11 11 10 10 8 8 8 9 10 9 7 6 5 5 5 4 4 4 4 5
13 14 20 20 19 21 19 19 20 15 11 12 13 12 11 14 15 11 11 13 10 12 14 13 11 11 13 17 15 15 20 19 15 19 14 13 17 23 25 23 22 23 20 17 15 16 18 19 18 17 17 17 17 17 17 17 18 18 17 14 12 12 13 12 12 12 12 12 12 12 11 10 8 7 8 8 6 5 5 4 4 4 4 4 4 4
14 16 22 22 20 22 19 16 20 16 9 12 16 15 12 13 16 11 12 13 9 10 14 12 9 9 12 17 15 14 16 14 17 18 13 12 17 21 20 19 21 22 22 21 18 18 19 19 18 17 17 17 18 17 16 16 16 16 15 12 12 13 11 10 12 13 12 11 11 11 11 10 9 7 7 8 6 6 7 6 5 5 4 3 4 4
12 18 21 22 21 22 19 15 20 19 10 10 13 15 15 14 16 13 12 13 8 8 14 14 10 7 11 16 16 16 15 13 13 14 16 16 18 19 18 19 21 21 21 23 22 20 19 19 18 17 18 17 16 16 15 14 15 15 15 14 14 14 13 12 13 12 10 10 9 9 9 9 9 9 9 9 9 9 8 7 5 4 4 4 3 3
13 19 21 23 22 19 17 14 18 20 13 9 12 16 16 14 14 15 12 11 8 8 13 17 14 7 9 14 16 18 16 15 15 13 16 19 18 17 17 19 21 20 21 25 24 23 21 20 19 18 17 16 15 15 15 14 15 17 17 16 16 16 14 13 12 11 11 10 9 9 9 8 8 9 9 9 9 8 7 6 5 4 3 3 3 3
15 20 21 23 20 15 15 14 17 20 14 10 11 16 14 11 12 14 12 10 9 9 10 15 15 10 8 11 16 19 19 17 19 17 15 19 21 18 16 19 21 19 20 25 25 23 22 21 20 19 16 15 15 15 16 16 16 18 19 17 17 17 14 12 12 11 12 12 10 8 8 8 8 9 9 8 7 7 7 6 4 4 2 1 3 4
14 18 19 19 15 13 15 17 18 20 16 12 12 15 12 9 10 10 9 9 10 10 10 14 16 11 8 9 12 16 18 18 18 18 18 21 23 19 16 18 18 16 18 23 24 23 23 22 21 19 17 16 14 15 17 16 16 19 20 17 17 16 13 13 12 10 10 10 9 7 7 8 8 9 8 7 6 6 6 4 2 2 2 3 4 5
14 17 17 14 14 14 16 18 17 19 19 13 10 13 12 9 8 7 7 8 8 10 12 14 16 13 10 9 10 11 13 15 14 15 18 23 24 21 18 17 15 14 16 21 23 22 22 21 19 18 18 16 14 15 17 17 17 20 21 18 16 15 14 13 12 9 8 8 8 8 8 9 8 7 7 6 5 4 3 3 2 3 4 5 5 3
14 16 14 14 19 18 16 17 16 18 21 13 8 11 11 9 8 6 7 8 8 10 12 14 16 15 11 8 8 11 13 14 14 14 17 22 27 26 21 18 18 18 20 22 22 22 23 22 19 18 17 16 16 17 18 18 19 20 20 19 17 16 15 13 12 10 9 8 8 9 9 8 7 6 6 5 5 4 4 4 4 3 2 2 3 2
13 14 14 15 21 21 16 14 14 16 18 13 9 11 10 9 9 8 9 10 9 9 10 15 17 14 11 10 9 12 15 16 13 14 16 21 28 32 28 24 25 24 23 24 24 24 24 22 20 19 19 19 19 19 19 19 20 21 21 21 19 17 15 14 13 11 10 9 9 9 9 8 7 7 7 5 5 4 4 4 3 1 0 2 2 2
11 13 18 17 16 19 17 13 12 13 16 14 11 12 11 9 9 10 10 9 9 8 9 15 16 12 9 10 12 9 13 15 16 16 17 19 24 30 31 29 27 27 26 25 26 26 24 22 21 20 21 21 20 20 20 20 20 21 22 21 19 17 15 14 14 12 10 10 9 8 8 6 7 8 7 6 6 4 2 2 1 1 1 0 2 2
13 11 17 18 13 18 20 15 13 13 15 14 12 12 11 9 8 8 9 9 9 9 10 11 11 11 9 4 5 5 9 8 10 14 16 17 19 22 26 26 25 25 25 24 26 26 23 22 22 22 22 22 20 19 19 18 18 19 20 19 18 17 14 13 12 11 10 9 9 8 7 6 5 5 5 6 5 4 3 2 1 1 1 1 1 2
15 10 15 18 14 19 20 15 15 15 13 12 12 12 11 10 8 6 6 4 4 8 9 8 7 7 4 4 3 5 9 6 5 8 11 13 15 17 21 23 23 23 23 23 24 25 24 22 23 23 22 22 21 20 20 18 17 17 18 17 16 15 13 12 11 9 8 7 6 5 5 4 4 3 4 4 3 3 3 3 2 1 1 0 1 2
13 9 16 19 15 19 20 16 17 15 11 10 12 13 11 12 10 7 6 1 2 7 8 8 8 5 4 2 3 7 10 10 9 8 9 10 12 15 18 20 22 22 22 22 23 25 24 23 24 25 23 23 24 22 21 20 18 17 17 17 16 15 13 11 10 8 7 6 5 5 4 4 5 5 4 4 4 3 2 3 2 1 1 1 1 2
11 8 16 20 15 18 21 19 17 15 12 9 11 13 11 12 12 8 7 5 6 8 7 10 12 10 7 6 8 10 12 13 13 12 12 13 13 14 17 20 20 20 20 21 25 26 25 25 27 26 23 24 25 23 21 21 20 19 17 16 16 15 12 10 9 7 7 6 6 6 5 5 5 5 4 4 4 4 3 3 3 2 2 1 1 2
12 8 13 18 17 17 20 17 13 14 17 12 11 12 10 10 11 9 8 8 9 9 8 11 13 11 10 8 11 15 14 14 15 15 14 15 15 15 17 20 19 20 22 26 30 29 27 28 27 24 23 23 23 22 21 21 21 19 17 17 15 14 12 10 9 7 6 6 6 5 5 5 5 5 5 5 4 4 5 4 3 2 2 2 2 3
12 8 9 16 18 16 15 13 11 13 15 14 11 12 10 8 9 10 7 7 9 8 8 11 12 10 9 10 14 16 16 15 16 15 15 16 17 18 19 20 21 24 27 28 29 28 28 30 28 25 25 25 22 22 22 21 20 19 19 18 15 13 11 9 8 7 6 7 6 6 6 5 5 5 5 5 5 5 5 5 4 3 2 3 2 3
10 8 8 13 17 15 12 12 13 13 13 12 11 12 12 9 8 9 8 7 8 8 7 8 10 7 4 6 13 16 16 16 16 15 13 14 18 19 19 21 24 25 26 25 26 26 28 30 30 27 25 25 24 23 22 20 19 19 19 17 14 11 10 9 8 7 7 7 7 7 7 6 6 6 5 5 5 5 5 4 4 3 2 3 3 3
9 8 10 11 13 14 13 14 16 15 16 14 10 10 12 10 9 8 9 10 9 9 8 7 9 5 3 2 8 11 13 14 15 15 14 15 18 18 17 22 25 25 25 27 27 28 29 29 29 28 25 24 24 22 22 21 19 18 17 15 13 11 11 10 8 8 7 7 7 7 7 6 6 6 6 6 5 5 4 4 3 3 3 3 3 3
8 7 9 11 11 13 15 17 16 16 18 16 11 10 11 11 11 9 9 10 9 9 8 7 8 3 4 2 3 4 9 14 16 16 15 14 16 18 20 23 24 24 26 29 29 31 32 30 28 26 23 23 22 21 23 24 20 17 16 15 12 11 12 12 9 8 7 6 7 7 7 6 6 6 6 6 5 5 5 4 3 4 4 4 3 4
9 7 9 11 10 11 14 17 16 16 17 15 12 12 12 11 13 11 9 8 8 9 9 7 6 4 3 1 2 1 6 12 15 16 14 16 19 21 23 24 25 26 28 30 30 30 31 30 27 24 23 23 21 19 22 23 20 17 16 15 12 12 14 13 10 9 7 7 7 7 7 7 7 7 7 7 6 5 5 4 3 4 5 4 4 5
9 8 9 10 10 11 13 14 14 16 15 12 12 15 16 14 15 12 10 9 8 11 11 8 5 5 3 2 3 3 4 9 10 12 16 20 21 22 23 26 27 28 29 30 29 29 31 30 25 22 23 23 20 19 20 18 17 17 16 14 14 16 16 13 10 9 8 8 8 7 8 8 7 7 7 7 6 5 5 5 4 5 5 5 6 7
10 9 9 11 12 12 13 12 13 13 12 10 13 18 19 18 17 13 9 9 9 10 12 10 5 4 3 5 8 8 7 9 10 12 18 19 21 22 23 26 29 27 26 26 25 27 31 30 24 21 23 23 21 20 19 16 15 16 15 14 15 17 16 11 11 10 8 9 9 8 8 8 7 8 8 7 6 5 6 6 6 6 7 7 8 8
7 9 12 13 12 11 12 12 11 12 13 13 16 19 20 19 18 14 9 9 9 8 10 11 7 6 5 8 11 12 10 10 11 13 17 18 20 21 22 26 29 26 23 24 26 29 31 27 22 22 22 21 20 19 18 16 15 14 15 14 13 14 12 9 10 10 9 9 9 8 8 8 7 7 7 7 7 7 7 7 8 8 8 8 8 8
6 10 15 15 14 14 14 13 13 14 16 16 17 19 20 21 20 15 11 11 11 9 9 11 12 9 7 8 12 13 12 11 12 13 15 18 20 20 23 26 26 23 22 25 28 30 29 24 22 24 25 23 22 21 18 15 15 15 15 15 12 11 10 9 9 10 10 10 9 8 8 7 8 8 8 8 8 8 8 9 10 9 9 8 8 9
6 11 15 14 15 15 15 15 16 17 17 17 17 17 19 20 20 17 13 13 12 10 8 9 13 13 10 10 11 11 11 12 14 14 15 18 21 22 24 24 21 21 24 27 27 27 26 25 27 28 26 26 26 23 18 15 14 14 15 15 13 13 12 12 12 12 11 10 9 8 8 8 9 10 10 10 9 9 10 10 10 9 8 8 8 9
7 9 13 14 13 14 16 16 16 16 16 17 17 17 17 17 18 17 15 15 14 12 10 8 10 11 10 11 10 11 13 14 16 18 18 20 23 24 23 23 22 21 23 26 26 25 25 27 29 27 24 24 24 21 18 16 14 13 15 15 15 15 14 14 14 13 11 10 10 9 9 9 11 11 11 10 9 9 10 9 9 8 8 9 8 9
9 7 13 14 9 11 14 13 12 13 15 16 17 18 17 16 17 17 15 14 14 13 12 10 8 7 6 9 11 14 16 15 16 18 19 20 23 24 24 25 25 23 23 25 27 26 27 28 28 25 24 24 23 20 19 18 15 14 15 15 16 16 15 15 16 14 11 11 11 10 9 9 10 10 10 9 9 9 9 8 8 8 8 9 9 9
9 7 12 13 8 9 11 10 11 13 14 16 17 19 19 17 16 15 13 13 13 14 13 10 8 6 6 9 12 14 15 15 16 17 18 20 22 25 26 26 26 25 25 27 29 32 33 32 28 25 25 24 22 20 19 18 16 16 16 16 16 16 15 16 17 15 13 13 12 11 10 10 10 10 9 10 9 9 9 9 8 8 8 9 9 9
9 7 10 11 9 9 11 12 12 10 12 13 13 16 19 18 16 14 14 15 15 14 11 9 8 7 10 11 11 13 14 14 15 18 20 20 22 25 26 26 27 28 27 28 34 36 33 29 26 23 22 20 19 18 17 16 17 18 18 17 16 16 16 16 16 15 15 14 12 11 11 11 11 10 10 10 9 9 9 9 9 9 8 8 9 9
10 8 8 10 9 9 12 12 10 9 10 6 4 8 13 15 17 17 15 16 16 13 10 9 9 7 11 13 12 12 14 14 16 19 20 21 23 24 26 28 29 29 29 33 38 34 28 26 25 22 21 19 18 18 18 16 17 19 19 18 17 17 17 17 16 16 16 15 13 12 11 12 11 11 11 10 10 9 9 9 9 9 9 9 9 9
10 8 8 8 8 7 9 10 9 9 7 2 3 1 3 7 14 16 16 17 17 16 14 13 11 7 7 9 11 12 14 15 16 17 19 23 25 25 27 30 30 32 36 38 35 29 27 28 27 24 24 22 20 19 18 17 18 20 20 19 18 17 17 17 17 17 16 15 14 12 12 12 12 11 11 11 10 10 10 10 10 9 9 9 10 10
10 7 7 8 7 6 7 9 8 5 4 3 2 1 2 4 9 12 15 17 18 17 16 14 11 8 6 7 11 13 14 16 15 16 19 23 23 26 30 30 29 34 40 37 31 28 30 30 28 25 25 23 20 18 18 18 19 20 20 18 17 17 17 17 17 16 16 15 14 13 12 12 12 12 11 11 11 11 11 11 11 11 10 11 11 12
10 8 7 8 8 6 7 9 6 4 5 4 2 2 5 8 9 9 9 11 12 13 14 14 13 11 10 10 13 15 16 15 13 13 19 22 23 27 30 29 30 37 39 33 29 29 29 28 26 25 23 21 19 18 18 19 19 19 19 18 17 17 17 17 17 16 16 15 14 14 14 13 13 13 12 12 12 11 11 11 11 11 10 11 12 13
12 9 7 7 7 6 6 8 7 6 6 4 3 4 6 7 10 11 9 7 10 13 15 15 14 13 12 12 17 19 16 12 8 12 20 24 25 28 28 28 34 38 37 32 30 28 27 26 25 23 22 21 19 18 19 19 19 19 18 17 17 17 17 17 16 16 16 16 15 15 14 14 14 13 12 12 12 11 11 11 11 11 11 11 11 11
12 10 7 6 6 5 5 7 8 5 2 3 4 6 7 6 8 10 9 9 12 17 19 18 14 13 14 17 20 19 13 8 6 13 23 27 28 29 30 31 34 35 33 32 31 29 27 26 25 23 22 20 19 19 19 19 19 18 17 17 18 18 18 18 17 17 17 17 16 15 15 14 14 14 13 13 12 12 12 11 11 11 11 11 11 11
11 9 8 8 7 7 7 7 5 2 3 5 5 5 7 8 9 10 10 8 10 18 21 19 15 16 18 22 21 16 10 6 7 18 27 27 27 30 32 32 33 33 33 32 30 29 28 27 26 24 21 20 19 19 19 20 20 20 20 20 20 19 19 19 19 19 19 18 18 17 16 15 14 14 14 14 13 13 12 11 11 11 10 10 11 11
9 8 8 8 8 8 8 7 4 2 4 6 6 7 7 8 8 10 7 2 2 13 20 20 18 20 23 23 19 13 7 2 11 26 31 26 26 30 31 32 32 31 31 30 29 29 29 28 26 23 20 19 19 19 19 20 22 23 22 20 18 17 17 18 19 19 18 18 18 17 17 17 15 15 15 14 13 13 12 12 11 11 11 11 11 11
8 8 8 8 8 7 6 7 6 3 3 4 6 8 9 8 6 5 2 6 7 6 18 21 19 20 23 22 17 12 6 9 21 33 33 30 32 32 32 35 35 31 30 30 29 30 30 28 25 22 21 20 19 19 19 20 21 21 20 18 18 17 17 17 17 17 17 18 18 17 18 17 16 15 15 13 13 13 13 13 12 12 12 12 12 12
7 8 8 8 7 6 6 8 7 3 5 10 10 7 5 5 1 2 1 3 5 4 12 18 19 19 21 19 15 11 11 18 27 32 33 34 36 32 31 35 34 30 30 30 29 30 31 29 25 23 22 21 20 20 20 21 22 21 20 20 19 19 19 18 17 18 18 18 18 17 17 16 15 15 14 13 13 13 13 13 12 12 12 11 11 11
7 7 6 6 8 7 6 6 4 1 6 11 8 3 3 5 5 5 3 3 2 2 7 12 17 19 18 16 14 13 17 23 29 32 33 34 33 31 31 33 31 29 31 30 29 30 30 28 25 23 22 21 20 20 20 21 22 22 21 21 21 20 20 19 19 19 19 18 18 17 17 16 15 14 14 13 13 13 12 12 11 11 10 10 9 9
3 2 1 3 4 3 2 3 3 5 8 8 3 4 7 8 7 6 5 5 3 2 5 8 13 16 16 14 14 17 22 27 30 32 32 32 32 32 33 33 32 32 33 33 31 30 28 27 26 25 23 22 21 20 20 20 22 23 23 22 21 21 21 20 21 21 20 19 18 17 16 16 15 14 13 13 12 12 12 11 11 10 10 10 9 9
2 3 1 2 1 2 4 6 6 7 8 7 5 6 5 5 4 4 6 5 3 3 4 7 10 14 16 15 14 18 24 29 31 31 32 32 33 34 34 34 34 34 34 34 32 30 28 27 27 26 25 23 21 21 20 20 22 23 23 22 21 21 21 22 22 21 20 19 18 17 16 16 14 14 13 12 11 11 11 11 11 10 10 10 9 9
4 3 3 4 3 3 2 3 5 7 7 6 5 5 4 4 3 2 4 5 3 3 4 6 10 14 15 15 15 18 24 29 31 32 32 32 33 35 36 36 36 35 35 34 32 31 29 28 27 26 26 24 21 21 21 21 21 22 23 22 21 21 22 22 22 22 20 19 18 17 16 16 15 14 13 12 11 11 10 9 10 10 10 10 10 9
2 2 5 6 4 2 2 3 5 6 6 4 3 3 3 4 4 3 3 4 3 5 5 6 10 15 16 16 17 20 24 28 31 32 32 32 33 35 37 40 39 36 34 33 32 30 28 27 27 27 26 24 22 22 22 21 21 22 22 22 21 22 22 22 22 21 20 18 17 17 16 16 15 14 12 12 13 13 12 10 9 11 14 14 13 12
3 4 4 4 2 2 3 3 2 4 5 6 5 3 4 5 5 4 4 2 3 5 6 6 10 15 16 17 19 21 24 28 29 30 32 34 34 37 41 44 42 36 33 32 30 28 27 27 27 27 26 25 23 22 22 22 22 22 22 22 22 22 22 22 21 20 18 17 17 17 15 14 13 12 11 13 15 16 16 15 13 14 15 15 15 15
5 2 1 2 3 3 3 1 2 1 2 5 7 5 3 4 5 5 5 3 3 4 6 8 11 14 15 17 20 21 24 28 29 29 31 33 36 41 45 45 41 35 32 31 29 27 27 28 28 27 26 25 24 23 23 23 22 22 22 21 21 22 22 22 20 19 18 17 16 16 15 13 13 13 13 14 16 17 18 18 17 17 17 16 15 14
3 4 4 2 1 2 3 2 3 4 4 5 7 6 4 5 6 6 5 4 4 5 6 9 12 14 15 17 19 21 24 27 28 30 31 32 36 43 45 41 37 34 32 30 28 28 28 28 27 27 26 25 24 23 23 23 22 22 22 21 21 22 21 21 19 18 17 16 16 15 15 14 14 15 15 16 18 18 19 19 18 17 17 16 15 14
Wind_Direction
191 196 206 206 207 203 205 209 215 227 225 217 210 205 221 218 199 213 204 168 185 203 203 206 207 217 232 207 182 195 195 215 191 137 184 209 149 131 134 148 146 137 138 139 139 141 142 147 149 152 157 159 164 168 168 168 171 176 180 181 183 186 187 182 181 180 179 181 185 188 187 185 181 176 174 177 176 169 177 190 191 200 207 204 216 232
194 207 209 204 208 203 204 210 213 224 231 231 220 204 216 220 200 208 195 158 185 208 205 208 212 213 224 216 194 201 196 206 195 156 176 175 116 122 144 151 143 132 133 136 140 145 149 155 155 154 159 164 169 168 166 169 172 177 186 188 185 187 185 178 176 179 180 185 192 192 188 185 173 164 168 174 174 173 181 186 186 195 198 205 218 227
200 213 209 200 206 206 204 208 211 220 228 240 232 208 209 211 207 203 177 161 192 210 205 205 214 216 218 220 206 206 201 201 207 167 121 108 112 137 152 147 139 129 134 146 152 158 160 159 158 160 161 165 173 173 170 174 175 179 188 190 189 187 180 174 177 181 185 190 194 190 185 182 170 163 171 178 181 181 180 179 182 188 188 204 219 221
201 207 205 198 202 207 206 203 208 218 220 229 226 210 208 200 206 205 168 165 190 207 217 204 208 221 216 218 216 208 205 199 182 122 110 122 147 164 159 152 149 142 144 152 159 166 163 159 162 166 164 165 170 173 174 175 176 180 186 189 186 182 179 179 180 183 193 199 196 189 187 188 181 174 174 175 179 179 173 171 174 179 185 204 222 225
205 198 198 198 198 205 206 198 204 212 209 218 222 216 212 200 208 213 166 163 186 206 226 217 204 219 215 213 213 206 209 196 134 103 116 152 167 171 165 159 158 158 156 156 162 169 165 164 168 168 169 172 171 174 179 177 180 184 183 182 178 177 180 180 178 185 193 196 193 187 182 186 191 182 168 164 171 175 168 169 172 174 179 198 224 227
208 193 193 198 197 201 204 196 201 207 200 210 220 225 225 208 206 206 171 171 191 202 212 223 216 207 212 214 210 203 204 185 134 121 135 169 182 178 169 164 164 166 163 159 168 176 173 171 169 169 174 174 171 176 182 181 182 180 174 171 170 173 179 181 188 193 190 184 183 182 177 179 184 176 162 161 166 166 163 168 172 171 174 196 224 228
207 194 191 197 196 195 202 202 200 201 205 207 208 221 235 226 207 195 183 185 198 203 193 209 228 208 208 212 208 208 195 159 144 150 149 166 188 181 172 172 168 169 166 162 171 178 178 175 169 173 179 175 174 176 178 180 176 170 167 170 173 176 179 186 194 194 187 180 175 176 180 181 177 174 172 171 168 163 164 169 169 169 177 189 203 218
201 195 190 196 196 192 200 203 193 194 209 212 192 205 228 238 214 190 189 197 203 211 191 198 222 232 218 204 195 209 203 159 154 173 161 165 187 184 174 175 173 176 173 168 174 178 179 179 174 176 179 176 176 173 174 175 169 169 172 176 181 180 178 181 184 183 184 182 178 179 181 181 180 181 180 174 170 168 163 163 162 158 169 188 194 206
195 200 191 192 195 192 199 196 187 191 211 223 188 194 217 234 220 195 194 210 210 216 198 191 208 233 238 206 190 204 212 185 165 175 179 178 189 191 175 174 176 179 178 173 175 175 176 177 177 179 179 176 173 169 172 170 168 174 174 177 184 181 176 177 177 183 184 177 178 181 174 177 177 173 169 161 166 172 163 164 169 155 141 219 245 242
194 204 189 186 191 190 196 196 191 190 207 223 190 183 201 214 215 205 203 214 213 221 215 191 195 218 239 215 197 200 210 207 184 176 186 186 188 189 179 179 178 173 177 178 174 173 175 176 177 178 177 176 171 164 167 167 169 174 168 168 176 171 168 170 168 178 178 168 175 181 173 176 168 157 158 156 161 169 169 177 191 181 182 214 250 261
189 190 178 184 202 197 195 199 195 192 204 217 187 178 193 203 208 212 218 223 220 225 221 202 195 206 231 221 201 198 204 209 200 183 179 174 179 188 184 180 179 178 183 183 176 171 172 173 172 175 177 175 166 157 158 160 163 168 165 162 161 159 162 162 158 165 171 169 175 174 172 177 172 163 165 162 157 153 162 180 212 236 230 226 238 257
184 186 183 193 209 206 197 197 191 191 203 206 178 183 193 195 204 208 213 222 228 223 214 209 206 204 220 226 196 192 200 205 203 195 179 166 172 183 183 178 180 187 189 184 177 169 167 168 166 169 172 166 160 154 154 160 162 161 163 159 151 153 157 155 159 168 170 170 169 164 169 173 170 165 160 159 159 153 172 199 214 231 264 289 271 275
179 194 194 196 210 209 197 190 184 188 202 198 179 195 196 183 195 202 202 210 222 226 209 205 213 212 216 233 220 191 189 200 205 200 190 177 174 173 175 184 186 187 188 180 172 165 163 165 165 166 166 162 160 157 155 161 161 155 155 155 152 153 151 148 163 172 166 166 166 168 175 171 165 162 156 161 171 170 180 194 200 165 48 318 291 300
176 192 196 198 206 204 198 190 181 184 197 195 184 197 198 184 190 197 199 206 211 223 219 206 211 216 208 225 241 210 176 191 203 200 192 188 183 171 171 186 187 179 180 174 166 161 160 165 166 164 164 161 159 157 154 154 158 156 151 148 146 147 146 147 160 169 169 170 171 176 182 177 178 177 171 175 179 171 152 152 151 126 135 269 309 322
181 187 195 199 192 191 202 200 181 183 195 196 195 204 208 199 194 196 201 205 204 208 214 210 212 214 199 202 253 198 143 164 198 199 191 187 192 181 174 180 174 166 170 169 163 160 159 162 162 161 163 161 157 157 152 146 148 149 145 141 138 142 148 153 162 169 172 173 172 175 178 175 180 176 170 182 179 159 142 128 104 96 104 73 347 329
192 192 186 194 191 187 200 199 185 189 194 192 202 212 215 209 195 192 209 221 232 215 202 205 219 211 178 60 40 139 134 137 181 199 192 184 191 187 177 172 164 161 166 165 160 159 158 157 157 161 162 159 158 156 151 149 145 137 136 140 141 145 151 153 160 163 157 154 154 155 158 158 152 132 134 154 143 141 148 123 92 89 91 62 342 333
195 192 176 184 194 190 193 196 193 198 195 182 202 214 212 216 208 190 201 235 295 230 197 190 211 196 154 142 162 165 164 171 185 197 195 189 193 186 173 167 161 161 166 164 158 155 155 157 160 165 167 164 165 159 150 149 146 141 140 141 140 143 145 145 149 147 132 122 116 112 112 119 122 119 120 119 111 117 118 92 87 116 86 16 353 339
192 183 169 178 190 187 190 201 204 207 205 185 197 208 204 217 224 208 202 196 206 222 197 185 201 200 195 189 176 182 185 182 186 196 199 196 196 186 172 167 164 161 162 160 156 153 156 162 166 169 170 167 163 155 144 139 142 149 147 138 136 137 137 136 131 122 115 110 106 104 103 99 101 106 103 100 103 103 100 93 90 88 66 37 21 4
196 181 163 183 192 180 187 205 207 205 214 212 200 202 202 210 216 208 208 202 199 215 209 194 200 209 215 189 167 182 191 190 191 196 200 195 191 186 177 173 166 155 153 155 157 159 163 164 164 163 161 158 154 149 146 143 144 146 139 134 137 135 130 122 114 109 105 104 105 102 98 93 90 90 89 90 97 99 99 97 90 84 72 59 37 15
200 189 162 189 192 177 183 203 201 190 207 223 211 201 210 215 210 206 209 205 199 208 214 205 201 212 219 185 169 181 190 192 196 196 197 193 187 185 180 171 159 150 152 157 160 162 161 158 157 153 152 153 153 150 149 146 142 140 138 140 140 131 122 114 105 104 103 101 104 101 98 96 91 90 92 96 98 97 100 100 97 96 79 62 44 17
198 187 164 183 186 182 186 198 201 186 188 211 209 198 203 205 211 213 208 210 211 206 206 214 213 210 205 172 173 181 184 189 196 194 194 191 182 182 180 165 153 150 153 156 157 156 154 153 153 153 151 152 153 150 147 144 140 143 150 150 141 127 117 111 104 101 100 101 103 100 100 102 98 96 96 96 96 99 108 112 109 105 88 75 66 39
195 182 171 180 185 193 193 189 198 194 188 202 209 203 203 198 203 209 204 209 219 214 200 208 218 205 76 135 174 175 178 184 190 191 193 191 181 173 163 152 148 149 151 154 154 153 154 155 154 155 156 155 153 150 150 150 145 146 150 145 134 124 115 110 106 103 101 103 103 102 108 112 104 100 100 99 100 105 108 105 103 99 85 77 69 53
187 179 178 186 190 198 192 185 198 205 199 202 207 211 212 205 202 207 207 203 213 225 217 212 216 183 67 100 133 151 187 180 179 188 188 177 162 149 141 141 144 146 149 154 155 154 154 155 156 158 157 157 155 150 152 154 148 143 143 140 136 127 119 116 112 109 107 106 106 107 114 117 105 101 109 112 111 115 113 105 100 93 87 86 80 72
181 184 182 184 185 194 191 186 199 214 210 203 203 211 216 208 204 215 224 210 212 224 218 216 212 164 108 129 78 15 199 166 167 179 162 132 129 136 140 141 144 146 149 153 153 152 154 154 156 157 154 153 150 147 152 153 146 143 144 146 144 130 124 122 116 113 112 111 113 111 114 117 110 110 120 124 124 126 123 113 106 100 99 99 91 85
180 189 181 179 177 181 188 187 194 209 214 207 201 209 217 212 204 212 228 222 220 222 215 218 207 150 128 167 159 188 157 132 152 157 130 122 130 140 144 144 147 149 150 151 151 153 158 157 155 156 154 152 148 145 148 146 142 146 146 143 137 133 134 127 115 118 120 118 119 114 111 110 112 124 129 127 128 130 125 119 113 106 99 91 85 83
183 195 184 186 182 178 187 190 186 194 204 205 203 206 212 216 208 204 216 224 220 216 214 218 202 133 140 178 174 176 152 140 155 133 117 127 139 142 145 149 151 150 148 151 154 156 158 156 154 152 152 153 150 147 146 141 141 146 143 137 135 142 148 134 118 125 126 121 121 115 110 104 109 128 133 126 123 119 117 116 112 105 94 84 79 75
192 206 197 199 196 192 195 189 181 188 198 202 204 204 206 213 214 207 206 221 222 214 217 221 202 145 153 183 178 172 164 160 155 128 119 130 138 143 150 151 152 152 152 155 156 156 155 150 146 147 148 148 146 145 144 141 141 143 140 136 136 150 161 149 137 141 130 122 122 116 112 108 114 129 128 121 118 111 108 106 102 99 92 83 76 71
209 210 199 202 207 208 198 184 186 197 203 203 203 205 204 206 213 216 210 214 219 218 219 216 204 179 164 183 183 171 168 166 150 131 130 136 140 145 148 147 148 150 153 155 155 153 151 143 139 146 149 146 143 142 141 140 142 144 143 137 132 143 151 139 135 138 129 125 125 118 115 116 124 128 118 114 112 107 104 100 95 92 88 81 74 70
221 206 197 202 210 210 197 190 197 199 201 207 206 206 206 203 208 215 215 216 215 217 223 212 207 199 171 164 173 165 168 170 151 139 142 142 141 143 145 146 148 148 150 153 153 151 147 142 144 147 147 144 142 141 138 138 144 147 143 135 126 126 128 127 129 132 129 127 125 120 118 121 126 123 116 112 106 101 100 95 89 85 82 80 75 71
225 197 193 206 212 213 208 201 200 197 199 205 205 206 208 206 207 208 214 220 212 213 234 236 221 209 174 159 162 150 151 155 143 142 150 150 147 148 151 154 152 150 150 150 149 148 145 143 143 142 139 138 138 138 136 139 145 144 134 126 121 121 127 132 133 133 133 130 126 122 120 122 121 117 112 108 100 97 96 91 87 83 81 81 77 73
217 187 189 203 209 217 216 200 189 200 208 206 204 206 206 206 208 204 206 216 212 211 228 237 226 210 166 142 140 133 138 146 146 151 156 155 156 157 157 156 152 149 148 146 145 143 139 136 134 134 136 139 138 139 141 143 145 139 129 123 123 126 131 134 135 139 142 133 124 121 117 115 113 109 105 101 95 93 91 88 88 85 83 81 77 76
215 202 189 194 201 208 208 197 191 204 214 212 208 206 203 205 209 203 199 204 206 209 215 213 207 186 130 123 132 136 145 151 154 160 160 159 163 162 157 153 149 147 146 144 142 138 134 133 134 137 141 142 143 144 144 144 141 135 131 128 128 131 134 134 136 140 138 126 121 119 114 110 109 106 102 99 96 94 91 90 90 88 85 81 77 76
203 204 189 192 203 196 192 203 208 205 212 217 214 207 204 204 205 204 203 200 202 210 208 202 208 177 139 143 152 152 157 159 159 164 165 166 165 160 155 151 147 144 143 142 141 138 134 135 140 144 144 143 144 143 140 140 136 131 131 132 132 134 135 134 134 132 128 124 123 120 113 111 110 106 103 101 98 96 94 92 92 88 85 83 79 75
188 200 192 189 204 196 185 197 208 207 210 210 211 216 213 209 205 204 205 200 200 208 207 209 224 192 153 166 176 165 161 159 159 165 170 169 163 157 155 152 145 142 142 143 145 142 139 140 142 140 137 137 138 135 132 134 133 129 131 133 135 136 135 135 133 129 126 125 122 118 113 112 110 106 106 104 100 98 96 93 92 89 86 85 80 73
185 201 193 185 202 191 171 187 205 211 208 134 66 262 234 225 217 209 207 205 200 204 210 213 214 194 166 173 170 158 153 150 155 165 168 166 163 160 157 150 144 146 148 148 147 145 143 144 142 137 136 138 139 135 132 133 132 130 131 134 136 136 135 134 129 124 123 121 119 119 117 114 112 110 109 108 103 101 98 95 95 94 90 87 84 80
191 204 193 189 200 170 160 197 209 187 148 116 87 78 118 214 221 213 211 207 199 198 205 210 204 184 163 145 136 139 145 145 151 160 161 162 164 162 157 149 148 153 153 149 147 148 148 146 143 141 141 141 139 136 134 134 133 132 133 136 137 136 133 131 126 123 122 120 120 122 119 117 116 113 111 109 106 103 101 98 96 94 93 93 91 89
194 209 199 196 203 185 182 201 196 156 161 170 167 184 194 204 204 208 216 207 197 198 200 206 204 179 150 134 131 134 140 142 146 156 161 165 165 159 156 154 154 155 153 149 148 149 148 145 144 142 141 140 139 137 137 137 135 134 136 138 137 134 131 128 125 123 120 119 120 121 120 119 118 115 113 111 108 106 104 102 100 98 97 95 91 86
194 210 206 197 207 217 211 202 202 208 201 180 143 161 198 218 202 201 216 214 205 207 206 207 202 173 149 141 138 137 141 149 158 163 166 168 165 158 155 154 154 155 154 151 147 146 147 146 145 142 140 140 140 140 140 141 139 139 139 138 135 132 128 126 124 123 121 120 120 120 120 120 117 116 114 112 110 110 107 106 106 103 100 96 92 90
200 213 219 209 207 219 227 211 209 219 190 140 137 147 169 200 188 186 210 219 203 201 206 211 199 170 156 154 147 146 157 173 172 170 171 170 164 158 154 151 152 154 154 151 148 148 148 146 143 142 143 142 141 141 143 143 141 141 138 136 135 132 128 126 123 121 121 121 121 121 120 119 118 118 116 114 112 112 111 110 108 103 100 97 95 95
206 211 217 219 213 209 219 220 213 201 116 131 135 138 158 174 171 178 202 214 191 188 198 206 196 172 165 161 155 160 185 200 167 167 170 165 157 154 153 152 152 151 150 149 149 148 146 144 144 145 144 143 142 143 144 145 149 152 149 147 149 148 144 140 137 136 134 130 127 125 122 120 120 118 116 116 115 115 114 115 112 108 106 103 99 97
203 208 211 221 219 207 215 227 214 138 109 129 136 133 145 160 175 189 202 277 207 186 191 199 192 176 171 169 166 175 201 185 145 156 161 159 154 153 153 152 150 148 148 148 147 146 145 144 144 145 144 144 145 146 147 151 158 162 159 156 157 156 153 153 153 152 143 130 124 122 121 121 121 118 117 119 119 117 115 113 110 108 108 106 103 99
191 199 205 215 219 210 213 228 224 175 135 158 152 138 150 170 180 183 215 335 325 213 191 193 188 176 172 173 173 176 161 121 137 149 155 155 153 150 150 152 151 148 149 149 147 146 148 147 145 145 145 146 147 148 149 151 153 153 151 151 151 149 147 148 147 139 127 119 117 116 116 118 120 119 119 119 118 115 112 110 108 105 103 102 100 98
187 194 200 201 210 216 211 217 229 217 154 167 163 147 171 194 133 40 356 333 330 244 196 187 179 175 174 172 171 166 145 137 141 144 147 150 149 148 152 155 153 149 148 149 147 147 150 150 146 145 145 146 148 148 147 146 144 142 142 144 143 140 138 135 130 125 122 120 119 116 116 119 119 117 116 115 114 112 109 107 105 103 102 101 99 95
199 206 210 196 198 215 217 206 217 92 137 164 170 138 125 125 77 29 12 47 52 225 200 178 169 172 176 172 165 152 142 144 146 144 145 149 149 150 154 154 151 148 148 148 148 148 149 148 146 145 146 148 149 147 145 145 143 139 137 138 138 135 133 131 129 129 126 122 119 119 121 122 119 116 115 113 112 110 108 107 104 103 103 101 100 97
189 183 233 231 211 204 153 121 103 97 124 145 131 70 101 116 93 52 42 54 70 158 182 172 167 170 172 167 156 144 140 147 151 150 151 151 149 149 152 151 150 150 150 149 150 148 146 147 148 148 147 147 146 143 143 148 148 142 138 138 137 136 136 136 134 130 126 123 124 126 126 122 118 116 113 110 108 106 105 105 105 105 103 101 98 95
113 113 144 271 246 135 112 108 109 115 126 128 99 78 100 131 117 68 61 66 82 137 170 178 174 173 173 168 159 151 148 150 154 154 152 150 149 149 149 150 152 152 150 148 147 146 147 148 147 145 143 142 141 140 142 149 151 145 139 138 139 139 139 138 134 129 127 128 128 127 126 122 119 116 112 109 109 108 106 106 103 99 96 94 92 90
131 137 199 218 209 197 176 127 110 118 134 141 127 104 101 122 131 78 60 74 104 142 168 183 180 179 179 171 163 161 156 153 154 155 152 150 152 153 151 151 152 152 150 147 145 145 148 148 144 142 140 138 139 140 141 144 147 144 139 138 139 141 139 136 133 130 130 130 127 126 126 122 117 114 110 106 104 102 102 105 110 113 110 102 94 86
94 283 235 214 203 203 186 137 109 114 131 148 145 119 102 109 113 99 74 78 109 132 152 184 175 166 169 169 164 164 162 156 156 158 157 155 155 155 153 152 151 150 147 146 145 146 147 146 144 142 140 138 140 142 141 141 143 141 140 140 141 141 139 136 134 132 131 130 128 127 125 121 118 115 115 119 122 117 108 106 122 138 138 131 123 111
226 254 232 210 193 162 163 153 126 136 156 171 171 125 79 90 100 94 93 105 124 128 142 167 157 151 161 172 171 167 165 162 161 162 162 159 156 155 155 156 154 149 144 144 146 147 147 146 144 142 140 140 142 142 141 141 142 141 140 142 143 143 140 137 134 133 132 130 129 128 125 123 121 122 129 141 146 137 124 116 119 129 131 129 126 119
238 272 316 248 218 169 149 122 313 279 153 158 169 158 105 95 103 98 101 121 139 142 156 165 160 158 167 174 174 170 165 164 166 166 164 160 156 155 158 157 152 147 144 145 147 147 146 145 143 141 140 141 142 142 142 141 141 141 142 143 144 144 141 137 135 134 133 132 131 130 127 125 124 123 128 138 141 133 123 117 114 114 114 112 109 106
329 13 5 309 292 89 91 68 328 328 38 99 146 158 134 110 110 114 124 139 149 159 168 168 168 170 170 171 176 175 167 165 167 166 162 158 154 155 157 154 148 146 147 147 147 146 145 144 142 141 141 142 142 143 141 140 140 142 143 144 146 145 141 138 136 136 135 135 135 133 131 129 127 124 122 125 125 121 117 114 110 107 105 103 101 100
Height
1457 1457 1454 1450 1448 1448 1449 1449 1450 1445 1440 1440 1441 1445 1443 1438 1439 1437 1433 1434 1439 1447 1449 1448 1450 1450 1442 1438 1441 1446 1448 1449 1452 1464 1472 1468 1471 1476 1479 1483 1484 1486 1489 1490 1493 1496 1498 1499 1500 1501 1503 1505 1505 1506 1507 1509 1511 1513 1514 1515 1516 1517 1518 1520 1523 1525 1526 1528 1529 1529 1530 1531 1533 1535 1536 1537 1538 1539 1540 1541 1542 1543 1544 1545 1545 1546
1453 1451 1445 1444 1444 1444 1447 1448 1449 1446 1440 1438 1438 1441 1441 1437 1437 1434 1432 1436 1439 1444 1447 1446 1447 1448 1443 1439 1440 1443 1446 1448 1451 1461 1471 1472 1476 1480 1483 1487 1488 1488 1490 1492 1494 1496 1497 1499 1500 1501 1502 1503 1503 1504 1506 1507 1509 1511 1512 1514 1515 1516 1519 1521 1524 1526 1527 1529 1529 1530 1532 1533 1535 1536 1536 1537 1538 1539 1540 1541 1542 1542 1543 1544 1545 1545
1448 1445 1440 1441 1443 1443 1446 1446 1447 1446 1442 1441 1437 1438 1440 1436 1435 1432 1432 1438 1440 1444 1446 1444 1447 1446 1441 1439 1439 1441 1443 1447 1452 1458 1468 1475 1480 1485 1487 1489 1491 1490 1490 1493 1494 1495 1496 1497 1499 1500 1500 1502 1502 1503 1504 1506 1507 1508 1510 1512 1514 1517 1521 1524 1526 1528 1529 1530 1532 1534 1536 1538 1538 1538 1537 1537 1538 1540 1541 1541 1542 1542 1543 1544 1544 1545
1443 1439 1437 1439 1441 1442 1443 1444 1446 1445 1443 1443 1438 1438 1437 1433 1434 1433 1433 1439 1441 1443 1443 1442 1446 1444 1440 1439 1437 1438 1440 1445 1454 1462 1470 1476 1480 1484 1486 1487 1490 1491 1492 1493 1494 1495 1495 1496 1498 1499 1499 1501 1502 1503 1504 1505 1506 1508 1510 1512 1515 1519 1523 1525 1528 1530 1532 1532 1534 1535 1537 1539 1540 1539 1536 1536 1538 1539 1540 1541 1541 1542 1543 1543 1544 1544
1435 1434 1435 1437 1439 1440 1441 1442 1445 1445 1445 1444 1438 1435 1433 1429 1430 1428 1431 1440 1443 1444 1441 1439 1447 1445 1439 1440 1438 1437 1438 1443 1455 1466 1472 1475 1478 1482 1484 1486 1488 1489 1491 1493 1495 1496 1496 1496 1497 1498 1499 1499 1500 1502 1504 1504 1505 1507 1510 1513 1517 1521 1525 1528 1530 1531 1531 1531 1532 1533 1535 1537 1538 1539 1537 1536 1538 1539 1540 1541 1541 1542 1542 1543 1543 1544
1430 1430 1432 1435 1436 1437 1439 1441 1443 1443 1446 1446 1438 1432 1428 1427 1428 1427 1432 1441 1448 1450 1442 1440 1453 1452 1439 1438 1439 1436 1437 1444 1454 1466 1473 1474 1477 1481 1483 1484 1486 1487 1489 1491 1494 1497 1498 1496 1496 1497 1499 1499 1498 1501 1504 1505 1506 1508 1511 1515 1518 1521 1526 1529 1530 1530 1530 1531 1532 1533 1535 1536 1536 1538 1537 1537 1538 1540 1541 1541 1541 1542 1542 1543 1543 1543
1426 1426 1428 1431 1434 1436 1439 1439 1439 1440 1445 1444 1437 1432 1430 1427 1427 1430 1435 1441 1449 1450 1439 1438 1450 1452 1442 1437 1436 1434 1438 1447 1454 1463 1473 1475 1476 1478 1478 1480 1482 1485 1487 1490 1493 1496 1498 1496 1495 1497 1498 1498 1498 1500 1504 1506 1507 1509 1512 1515 1517 1520 1523 1526 1527 1528 1530 1532 1534 1535 1535 1536 1536 1537 1538 1538 1539 1540 1540 1541 1541 1541 1542 1542 1543 1543
1421 1422 1426 1428 1430 1434 1437 1436 1434 1436 1442 1439 1431 1432 1434 1429 1427 1431 1436 1440 1441 1438 1435 1436 1441 1447 1442 1433 1432 1433 1438 1450 1455 1459 1468 1474 1476 1476 1476 1477 1479 1482 1485 1488 1493 1495 1496 1496 1495 1497 1498 1498 1499 1501 1504 1506 1508 1509 1511 1514 1516 1518 1521 1524 1527 1530 1532 1534 1535 1536 1536 1536 1536 1537 1538 1538 1539 1539 1540 1540 1541 1541 1542 1542 1542 1542
1418 1420 1422 1424 1428 1431 1433 1432 1432 1436 1440 1433 1427 1432 1434 1432 1431 1430 1435 1439 1435 1436 1440 1437 1439 1450 1444 1428 1428 1434 1437 1446 1454 1457 1463 1468 1474 1476 1475 1476 1478 1480 1483 1487 1491 1493 1494 1495 1495 1496 1498 1499 1500 1501 1504 1506 1507 1509 1511 1514 1515 1516 1520 1523 1526 1530 1534 1535 1536 1536 1536 1536 1537 1538 1538 1539 1539 1539 1539 1540 1540 1541 1541 1541 1541 1541
1417 1417 1417 1422 1427 1429 1430 1429 1430 1435 1437 1429 1426 1432 1435 1435 1433 1432 1437 1436 1435 1442 1444 1435 1436 1451 1448 1428 1425 1433 1434 1438 1443 1450 1458 1463 1468 1471 1472 1475 1476 1479 1483 1486 1490 1491 1492 1493 1494 1496 1498 1499 1501 1502 1504 1505 1507 1509 1511 1514 1515 1517 1520 1523 1525 1529 1533 1535 1535 1535 1536 1537 1538 1538 1538 1538 1538 1538 1539 1539 1540 1540 1540 1540 1540 1539
1413 1416 1419 1425 1427 1426 1427 1428 1428 1432 1434 1428 1428 1434 1439 1439 1436 1437 1438 1434 1442 1449 1440 1431 1431 1444 1449 1431 1421 1429 1430 1431 1434 1441 1451 1458 1463 1465 1468 1472 1474 1477 1483 1486 1489 1490 1491 1493 1494 1495 1497 1499 1501 1502 1504 1505 1506 1509 1511 1514 1516 1518 1520 1522 1524 1528 1532 1534 1534 1535 1537 1537 1537 1537 1537 1537 1537 1538 1538 1539 1539 1539 1539 1538 1538 1538
1412 1417 1420 1424 1427 1424 1425 1426 1427 1431 1431 1430 1433 1438 1443 1445 1443 1446 1445 1442 1454 1453 1435 1428 1428 1438 1448 1432 1417 1423 1425 1426 1431 1434 1442 1453 1460 1463 1465 1470 1473 1477 1483 1486 1487 1488 1489 1491 1493 1495 1497 1499 1501 1502 1504 1506 1506 1509 1512 1514 1516 1518 1520 1521 1524 1528 1531 1533 1535 1536 1537 1537 1536 1535 1536 1536 1537 1537 1538 1538 1538 1538 1538 1538 1538 1538
1418 1420 1419 1425 1426 1421 1423 1425 1428 1431 1429 1430 1436 1440 1446 1452 1455 1459 1455 1451 1454 1446 1430 1427 1430 1435 1440 1426 1415 1418 1422 1424 1427 1429 1435 1444 1453 1461 1466 1470 1471 1476 1481 1483 1485 1486 1487 1490 1493 1495 1497 1499 1501 1503 1504 1506 1507 1509 1511 1513 1516 1518 1518 1520 1525 1530 1533 1535 1536 1536 1535 1535 1535 1534 1535 1535 1535 1536 1536 1536 1537 1537 1538 1538 1538 1537
1423 1424 1421 1425 1423 1417 1420 1422 1426 1430 1427 1429 1434 1437 1442 1448 1461 1468 1459 1452 1453 1443 1428 1422 1428 1435 1433 1423 1416 1415 1418 1422 1424 1427 1431 1436 1445 1454 1464 1468 1468 1471 1477 1480 1482 1484 1485 1489 1492 1494 1496 1499 1501 1503 1504 1506 1508 1509 1512 1514 1516 1518 1519 1523 1528 1532 1534 1535 1535 1534 1534 1534 1534 1534 1534 1534 1534 1534 1534 1535 1535 1536 1537 1538 1538 1537
1424 1429 1420 1418 1418 1417 1417 1415 1419 1425 1425 1427 1426 1428 1432 1433 1448 1460 1453 1449 1451 1443 1431 1427 1432 1435 1432 1427 1419 1414 1419 1424 1426 1428 1431 1435 1440 1446 1456 1463 1466 1469 1474 1477 1480 1482 1485 1488 1491 1493 1496 1498 1500 1502 1505 1508 1511 1512 1513 1515 1516 1519 1523 1527 1530 1532 1532 1533 1533 1533 1533 1533 1533 1532 1532 1531 1531 1532 1532 1533 1534 1534 1535 1536 1537 1536
1417 1422 1412 1413 1414 1413 1416 1413 1414 1422 1425 1426 1423 1426 1428 1421 1427 1442 1443 1440 1443 1441 1436 1435 1433 1425 1425 1428 1422 1419 1425 1428 1431 1431 1431 1436 1439 1442 1450 1457 1463 1468 1472 1476 1478 1481 1484 1487 1491 1493 1495 1498 1499 1501 1503 1508 1513 1515 1516 1517 1519 1522 1526 1528 1529 1531 1531 1531 1531 1531 1531 1531 1531 1530 1530 1529 1530 1530 1531 1532 1533 1534 1533 1534 1534 1533
1415 1415 1405 1411 1415 1411 1415 1415 1413 1418 1421 1424 1427 1426 1421 1414 1417 1434 1443 1439 1442 1447 1439 1434 1434 1427 1429 1434 1428 1427 1432 1431 1434 1435 1434 1438 1439 1441 1448 1453 1460 1467 1471 1475 1478 1481 1484 1487 1490 1492 1494 1496 1497 1499 1501 1503 1509 1514 1516 1518 1520 1523 1526 1527 1528 1529 1529 1530 1530 1530 1529 1529 1529 1529 1528 1528 1529 1529 1530 1531 1532 1532 1532 1531 1532 1532
1409 1410 1403 1410 1417 1413 1416 1417 1413 1413 1414 1420 1427 1422 1416 1418 1416 1423 1440 1446 1450 1453 1439 1431 1437 1435 1436 1440 1432 1431 1435 1434 1435 1436 1436 1439 1441 1443 1448 1453 1460 1465 1470 1477 1479 1480 1483 1485 1488 1490 1493 1495 1497 1499 1501 1501 1505 1510 1514 1516 1519 1522 1524 1526 1527 1527 1527 1528 1528 1529 1528 1528 1528 1528 1528 1528 1528 1529 1530 1530 1530 1530 1531 1531 1531 1531
1400 1407 1410 1411 1414 1415 1415 1418 1418 1414 1411 1414 1418 1415 1416 1427 1426 1421 1435 1447 1452 1455 1442 1431 1436 1434 1429 1431 1431 1433 1435 1435 1435 1435 1436 1438 1440 1444 1448 1454 1460 1464 1470 1475 1476 1477 1479 1482 1487 1490 1494 1497 1499 1500 1500 1502 1504 1507 1511 1514 1518 1520 1522 1523 1524 1525 1526 1526 1527 1527 1528 1528 1528 1529 1529 1529 1529 1529 1529 1529 1529 1529 1530 1530 1531 1531
1394 1405 1417 1413 1408 1414 1416 1418 1420 1418 1415 1413 1413 1412 1412 1420 1424 1422 1426 1433 1443 1451 1445 1437 1438 1432 1419 1417 1424 1430 1431 1432 1433 1434 1435 1436 1439 1444 1448 1453 1460 1465 1469 1472 1474 1476 1478 1482 1488 1491 1494 1496 1499 1500 1500 1502 1504 1507 1510 1513 1516 1518 1520 1521 1522 1523 1524 1524 1525 1526 1527 1529 1529 1529 1530 1529 1529 1529 1529 1529 1529 1529 1530 1530 1531 1531
1394 1403 1418 1415 1408 1415 1417 1413 1412 1413 1416 1417 1414 1414 1414 1414 1415 1417 1420 1421 1428 1440 1444 1444 1441 1426 1412 1411 1419 1424 1426 1428 1430 1431 1433 1434 1438 1443 1448 1453 1459 1464 1468 1471 1475 1478 1480 1484 1488 1491 1493 1496 1498 1500 1501 1503 1505 1507 1510 1512 1514 1516 1517 1520 1521 1522 1523 1523 1524 1525 1527 1528 1529 1529 1529 1529 1529 1529 1528 1528 1528 1529 1530 1530 1531 1531
1397 1401 1414 1417 1414 1414 1411 1405 1406 1407 1411 1414 1412 1410 1411 1413 1416 1426 1432 1423 1418 1423 1430 1439 1440 1425 1415 1414 1415 1418 1422 1424 1426 1428 1432 1434 1438 1444 1449 1454 1460 1464 1468 1471 1475 1478 1481 1485 1488 1491 1494 1496 1498 1499 1500 1502 1504 1507 1509 1511 1512 1514 1516 1519 1521 1522 1523 1524 1525 1525 1526 1527 1528 1528 1528 1528 1529 1528 1528 1529 1529 1529 1530 1530 1530 1530
1396 1401 1410 1416 1413 1410 1406 1404 1407 1407 1406 1408 1411 1410 1408 1409 1413 1428 1435 1425 1418 1417 1414 1422 1433 1429 1421 1417 1416 1418 1419 1420 1424 1427 1430 1434 1440 1446 1452 1457 1461 1465 1468 1472 1475 1477 1481 1485 1488 1491 1494 1496 1499 1499 1500 1502 1504 1506 1509 1510 1511 1513 1516 1519 1520 1522 1523 1524 1525 1526 1526 1526 1527 1527 1527 1527 1528 1528 1529 1529 1529 1529 1530 1530 1530 1530
1398 1402 1409 1413 1410 1406 1404 1404 1407 1407 1405 1407 1410 1409 1407 1407 1409 1416 1418 1415 1420 1421 1415 1422 1434 1434 1426 1421 1421 1421 1418 1418 1424 1427 1431 1438 1444 1450 1455 1459 1462 1466 1469 1472 1474 1477 1481 1485 1488 1492 1494 1496 1499 1500 1501 1502 1504 1506 1508 1510 1511 1513 1515 1517 1519 1522 1523 1525 1526 1526 1526 1526 1526 1527 1527 1527 1528 1528 1529 1530 1529 1529 1529 1529 1529 1529
1401 1402 1405 1411 1414 1414 1413 1411 1412 1410 1405 1405 1408 1408 1406 1404 1408 1413 1412 1412 1420 1419 1415 1426 1438 1436 1428 1424 1425 1424 1421 1423 1427 1430 1435 1442 1448 1453 1457 1460 1463 1467 1470 1472 1474 1477 1480 1485 1489 1491 1493 1496 1499 1501 1503 1504 1505 1506 1509 1510 1511 1513 1514 1516 1519 1522 1524 1525 1526 1527 1527 1526 1526 1527 1527 1528 1529 1529 1530 1530 1529 1529 1529 1529 1529 1529
1401 1399 1399 1406 1413 1419 1419 1413 1410 1408 1405 1404 1405 1406 1407 1405 1408 1414 1417 1421 1425 1418 1414 1423 1433 1435 1430 1427 1427 1426 1427 1430 1431 1435 1442 1446 1451 1455 1458 1461 1464 1467 1470 1473 1475 1478 1482 1486 1489 1491 1493 1496 1499 1501 1503 1505 1506 1508 1510 1510 1511 1513 1513 1514 1519 1523 1525 1526 1527 1527 1528 1527 1527 1527 1527 1528 1529 1529 1530 1530 1529 1529 1529 1529 1529 1529
1401 1398 1395 1397 1401 1406 1405 1400 1398 1402 1406 1408 1406 1406 1408 1407 1407 1410 1419 1425 1422 1419 1419 1417 1421 1432 1433 1429 1428 1429 1430 1433 1435 1440 1447 1450 1453 1456 1459 1461 1464 1467 1470 1472 1475 1479 1482 1485 1488 1491 1494 1497 1499 1502 1504 1506 1508 1510 1511 1511 1511 1512 1512 1515 1519 1522 1524 1526 1527 1527 1528 1528 1527 1527 1528 1528 1529 1530 1530 1530 1529 1529 1529 1529 1529 1530
1404 1401 1395 1395 1397 1393 1391 1393 1397 1401 1405 1406 1406 1406 1406 1407 1408 1409 1417 1420 1415 1420 1426 1417 1415 1428 1432 1427 1427 1428 1431 1434 1437 1444 1449 1451 1454 1457 1459 1462 1465 1468 1471 1473 1476 1479 1482 1484 1487 1490 1494 1496 1499 1502 1504 1507 1510 1511 1511 1511 1511 1511 1513 1516 1519 1521 1524 1526 1527 1527 1527 1527 1527 1528 1528 1529 1529 1530 1530 1530 1529 1529 1529 1530 1530 1530
1403 1400 1394 1396 1397 1390 1386 1392 1395 1398 1402 1403 1403 1405 1404 1405 1409 1411 1415 1414 1412 1420 1423 1414 1413 1421 1424 1425 1426 1428 1432 1435 1439 1446 1451 1452 1455 1458 1461 1464 1467 1470 1472 1474 1477 1479 1481 1483 1485 1490 1494 1497 1500 1503 1505 1509 1511 1512 1512 1510 1510 1512 1514 1517 1520 1523 1525 1526 1527 1527 1527 1527 1527 1528 1529 1529 1530 1530 1530 1530 1530 1530 1531 1531 1531 1531
1401 1399 1396 1398 1400 1394 1389 1389 1390 1393 1399 1401 1402 1403 1404 1405 1406 1410 1414 1411 1411 1417 1416 1413 1414 1415 1417 1422 1425 1428 1434 1437 1440 1447 1451 1454 1457 1459 1462 1465 1467 1470 1472 1474 1477 1479 1481 1484 1486 1491 1495 1498 1501 1503 1506 1510 1513 1513 1512 1510 1510 1513 1516 1519 1522 1525 1527 1527 1528 1528 1527 1527 1528 1528 1529 1529 1530 1530 1530 1531 1531 1532 1532 1532 1532 1532
1401 1400 1399 1399 1404 1402 1392 1388 1392 1397 1399 1401 1403 1403 1403 1407 1407 1410 1414 1413 1414 1418 1417 1416 1419 1418 1416 1419 1423 1429 1434 1437 1442 1448 1451 1454 1457 1459 1462 1465 1467 1470 1473 1475 1478 1480 1482 1485 1489 1494 1497 1500 1502 1504 1507 1510 1512 1513 1512 1511 1511 1514 1517 1520 1523 1526 1528 1528 1528 1528 1528 1528 1528 1528 1529 1530 1531 1531 1532 1532 1532 1533 1533 1532 1532 1532
1403 1402 1399 1402 1410 1408 1398 1396 1400 1401 1401 1403 1404 1402 1404 1407 1408 1409 1412 1414 1417 1420 1421 1422 1424 1423 1422 1423 1426 1432 1435 1438 1442 1447 1450 1454 1457 1459 1461 1464 1467 1470 1472 1475 1478 1480 1483 1486 1490 1496 1499 1501 1503 1504 1506 1508 1510 1511 1511 1512 1513 1516 1518 1521 1523 1526 1527 1528 1529 1529 1528 1529 1529 1530 1530 1531 1532 1533 1533 1533 1533 1534 1534 1533 1533 1532
1403 1402 1399 1403 1410 1408 1404 1405 1404 1406 1411 1410 1402 1398 1400 1403 1406 1408 1410 1412 1415 1417 1421 1424 1421 1419 1423 1427 1430 1433 1435 1438 1442 1446 1450 1453 1456 1459 1461 1463 1467 1469 1472 1475 1477 1480 1483 1487 1491 1495 1498 1501 1502 1503 1505 1506 1507 1509 1510 1512 1515 1517 1520 1522 1524 1526 1527 1529 1530 1530 1529 1530 1530 1531 1531 1532 1533 1533 1534 1534 1535 1535 1535 1534 1534 1533
1401 1402 1399 1401 1406 1407 1406 1407 1409 1417 1422 1413 1401 1396 1397 1399 1403 1407 1408 1410 1412 1413 1416 1418 1415 1414 1419 1425 1428 1431 1433 1437 1441 1446 1450 1453 1455 1459 1461 1464 1467 1469 1472 1476 1478 1481 1484 1488 1492 1495 1498 1502 1503 1503 1504 1506 1507 1508 1511 1514 1516 1519 1521 1523 1524 1526 1527 1529 1530 1530 1531 1531 1531 1532 1533 1533 1534 1534 1535 1535 1536 1536 1536 1535 1536 1535
1401 1401 1399 1399 1402 1404 1406 1412 1423 1428 1419 1408 1403 1401 1399 1400 1400 1402 1405 1406 1409 1412 1413 1414 1414 1415 1419 1422 1425 1429 1433 1437 1442 1446 1450 1453 1456 1459 1461 1464 1466 1468 1471 1476 1479 1482 1485 1487 1491 1495 1499 1502 1504 1504 1505 1506 1507 1509 1512 1515 1518 1520 1522 1523 1524 1525 1526 1528 1530 1531 1531 1532 1532 1533 1534 1534 1535 1535 1536 1536 1536 1537 1537 1537 1537 1537
1401 1401 1399 1399 1399 1405 1413 1419 1424 1423 1413 1407 1408 1405 1403 1405 1403 1404 1407 1404 1404 1409 1413 1413 1414 1417 1420 1423 1426 1431 1435 1438 1443 1447 1450 1454 1456 1459 1462 1464 1466 1469 1471 1475 1480 1483 1485 1487 1491 1495 1499 1501 1503 1504 1505 1507 1508 1510 1513 1516 1519 1520 1522 1523 1523 1524 1526 1528 1530 1531 1531 1532 1533 1534 1534 1535 1535 1536 1536 1537 1537 1537 1537 1538 1538 1537
1400 1401 1400 1400 1399 1404 1413 1416 1413 1415 1415 1413 1410 1406 1405 1406 1406 1410 1412 1407 1403 1406 1410 1412 1413 1416 1422 1426 1428 1433 1437 1441 1445 1449 1452 1454 1457 1459 1462 1464 1467 1469 1472 1476 1480 1484 1487 1489 1492 1496 1499 1501 1503 1504 1506 1507 1510 1512 1514 1517 1519 1520 1521 1522 1523 1524 1526 1528 1529 1530 1531 1532 1533 1534 1535 1535 1536 1536 1537 1538 1538 1538 1538 1538 1538 1538
1398 1399 1400 1404 1402 1401 1408 1414 1413 1416 1418 1413 1407 1405 1405 1405 1405 1408 1413 1413 1408 1408 1409 1411 1411 1415 1421 1427 1430 1434 1439 1442 1446 1449 1451 1454 1456 1459 1462 1465 1467 1470 1473 1476 1480 1484 1488 1490 1493 1496 1499 1501 1503 1505 1506 1508 1510 1513 1515 1518 1519 1520 1521 1522 1523 1525 1526 1528 1529 1530 1531 1532 1533 1534 1535 1535 1536 1537 1537 1538 1539 1539 1539 1540 1540 1540
1398 1399 1399 1404 1406 1406 1411 1415 1413 1413 1415 1413 1407 1404 1406 1408 1405 1408 1417 1416 1406 1405 1410 1409 1410 1415 1421 1426 1429 1433 1436 1439 1441 1444 1448 1452 1455 1458 1461 1465 1468 1471 1474 1477 1480 1484 1487 1490 1493 1497 1499 1501 1503 1505 1507 1509 1511 1513 1516 1517 1518 1519 1520 1521 1523 1525 1526 1527 1529 1530 1531 1532 1533 1534 1535 1536 1536 1537 1538 1539 1539 1540 1540 1541 1541 1541
1403 1402 1402 1405 1408 1409 1413 1412 1407 1407 1412 1411 1407 1405 1407 1407 1406 1414 1425 1417 1400 1401 1408 1408 1409 1414 1420 1424 1428 1430 1431 1431 1433 1439 1447 1451 1454 1457 1460 1464 1468 1471 1474 1478 1481 1484 1487 1490 1494 1497 1499 1502 1503 1505 1507 1510 1511 1513 1514 1515 1516 1517 1519 1520 1522 1523 1525 1526 1528 1529 1530 1532 1533 1534 1535 1536 1537 1538 1539 1539 1540 1541 1541 1542 1542 1542
1406 1404 1404 1407 1407 1407 1412 1411 1406 1407 1409 1406 1404 1406 1407 1409 1412 1419 1421 1411 1400 1402 1407 1407 1409 1414 1419 1423 1425 1426 1428 1427 1429 1437 1445 1450 1453 1457 1461 1465 1469 1472 1475 1478 1481 1485 1488 1491 1495 1497 1500 1502 1504 1506 1508 1509 1510 1511 1513 1514 1516 1517 1519 1520 1521 1523 1524 1525 1526 1528 1529 1531 1533 1534 1535 1536 1538 1539 1539 1540 1541 1541 1542 1542 1542 1543
1407 1407 1406 1407 1406 1405 1408 1408 1406 1409 1410 1406 1405 1407 1408 1411 1416 1416 1411 1408 1406 1406 1405 1407 1410 1413 1418 1423 1424 1426 1429 1430 1432 1438 1444 1448 1453 1458 1462 1465 1468 1472 1475 1477 1481 1485 1489 1492 1495 1497 1500 1502 1504 1506 1507 1508 1510 1512 1513 1515 1516 1518 1519 1521 1522 1523 1524 1526 1527 1528 1529 1531 1533 1534 1536 1537 1538 1539 1540 1540 1541 1541 1542 1543 1543 1543
1402 1404 1404 1403 1403 1403 1406 1409 1411 1411 1409 1406 1408 1410 1410 1411 1413 1411 1409 1409 1409 1407 1406 1409 1412 1416 1420 1424 1426 1427 1430 1433 1437 1441 1445 1450 1454 1458 1462 1465 1467 1471 1474 1477 1481 1485 1489 1492 1495 1497 1500 1502 1505 1506 1507 1509 1510 1512 1513 1515 1517 1519 1520 1522 1524 1525 1526 1528 1528 1529 1531 1533 1534 1536 1537 1538 1539 1540 1541 1541 1542 1542 1543 1544 1544 1544
1399 1398 1399 1397 1396 1399 1405 1408 1409 1406 1404 1406 1410 1410 1410 1411 1412 1412 1411 1410 1411 1411 1410 1410 1413 1418 1422 1424 1426 1428 1430 1434 1439 1443 1446 1451 1454 1457 1462 1465 1468 1471 1474 1478 1482 1486 1488 1492 1495 1498 1500 1503 1505 1507 1508 1509 1510 1512 1514 1516 1517 1519 1521 1523 1525 1527 1528 1529 1530 1531 1533 1535 1536 1538 1539 1540 1541 1541 1541 1542 1543 1544 1544 1545 1545 1546
1399 1398 1401 1399 1394 1395 1401 1404 1404 1403 1403 1407 1409 1409 1411 1413 1413 1414 1413 1412 1413 1414 1413 1413 1416 1420 1423 1426 1428 1429 1431 1436 1441 1444 1448 1451 1454 1457 1461 1465 1469 1472 1475 1479 1483 1486 1489 1492 1495 1498 1501 1503 1505 1506 1508 1509 1510 1511 1513 1516 1518 1520 1522 1524 1526 1527 1528 1530 1531 1533 1535 1536 1537 1539 1540 1541 1542 1542 1543 1543 1544 1544 1545 1545 1546 1546
1398 1398 1402 1402 1397 1397 1400 1402 1402 1404 1405 1408 1410 1411 1413 1414 1414 1415 1415 1415 1416 1416 1416 1417 1419 1421 1424 1428 1429 1430 1434 1438 1442 1446 1449 1452 1454 1458 1462 1466 1470 1474 1476 1479 1482 1485 1490 1493 1496 1498 1500 1502 1505 1506 1507 1509 1510 1511 1514 1516 1519 1521 1522 1524 1526 1527 1529 1531 1533 1534 1536 1537 1538 1539 1540 1542 1542 1543 1544 1544 1545 1545 1546 1546 1546 1546
1396 1397 1399 1400 1399 1401 1403 1402 1401 1404 1407 1408 1410 1412 1413 1414 1415 1415 1416 1417 1418 1418 1419 1420 1421 1422 1425 1427 1430 1433 1435 1438 1442 1447 1450 1452 1456 1459 1462 1466 1470 1474 1476 1479 1481 1485 1490 1493 1495 1497 1499 1501 1504 1506 1508 1509 1511 1512 1514 1517 1519 1521 1523 1525 1526 1528 1530 1532 1533 1535 1536 1537 1538 1540 1541 1543 1543 1544 1544 1545 1544 1544 1545 1545 1546 1546
1399 1400 1399 1397 1398 1404 1407 1405 1404 1406 1408 1409 1410 1411 1412 1414 1414 1415 1416 1417 1418 1419 1420 1421 1421 1423 1426 1429 1432 1434 1436 1439 1443 1446 1449 1452 1456 1459 1462 1465 1469 1473 1476 1478 1481 1485 1489 1492 1494 1496 1498 1501 1504 1506 1508 1510 1512 1513 1515 1518 1520 1522 1524 1525 1527 1529 1531 1532 1534 1535 1536 1538 1539 1541 1542 1542 1543 1543 1543 1544 1543 1543 1543 1543 1544 1545
1403 1401 1397 1395 1399 1407 1409 1407 1407 1408 1408 1409 1411 1412 1413 1414 1414 1415 1417 1417 1418 1420 1421 1422 1422 1424 1427 1431 1433 1435 1437 1440 1444 1447 1449 1452 1455 1458 1461 1463 1467 1472 1475 1479 1482 1486 1489 1491 1494 1496 1498 1501 1504 1507 1508 1510 1512 1514 1516 1518 1521 1522 1524 1526 1528 1529 1531 1533 1534 1535 1537 1539 1540 1541 1541 1542 1542 1542 1542 1542 1543 1543 1543 1544 1544 1544
1401 1400 1399 1398 1403 1410 1412 1411 1411 1410 1407 1408 1411 1413 1414 1415 1415 1416 1417 1418 1419 1420 1422 1423 1424 1426 1429 1432 1434 1435 1438 1441 1445 1448 1450 1452 1453 1456 1459 1463 1467 1472 1475 1479 1483 1487 1489 1492 1494 1496 1499 1502 1505 1507 1509 1510 1512 1515 1517 1519 1521 1523 1524 1526 1528 1530 1532 1533 1535 1536 1538 1539 1541 1541 1542 1542 1542 1543 1543 1543 1544 1544 1544 1545 1545 1546
1403 1405 1407 1406 1407 1411 1412 1413 1413 1411 1408 1409 1412 1414 1415 1416 1416 1417 1418 1419 1420 1422 1423 1424 1426 1428 1430 1433 1435 1436 1438 1441 1445 1448 1450 1452 1453 1455 1459 1464 1468 1472 1476 1480 1484 1487 1489 1492 1494 1497 1500 1502 1505 1507 1509 1511 1513 1515 1517 1519 1521 1523 1525 1526 1528 1530 1532 1534 1535 1537 1539 1540 1541 1542 1543 1543 1543 1544 1544 1544 1545 1545 1546 1546 1547 1547